| time (UTC) | temp C | wind direction | speed KPH | gust KPH | rain 1hr cm | rain 24hr cm | rain mn cm | humidity % | barometer mb |
| 20260506102522 | 20 | 112 | 1.6 | 0.0 | 0.00 | 0.15 | 0.00 | 38 | 1004.7 |
| 20260506101021 | 18 | 135 | 0.0 | 0.0 | 0.00 | 0.15 | 0.00 | 40 | 1005.0 |
| 20260506095521 | 18 | 112 | 6.4 | 0.0 | 0.00 | 0.15 | 0.00 | 39 | 1005.2 |
| 20260506094021 | 19 | 22 | 6.4 | 0.0 | 0.00 | 0.15 | 0.00 | 38 | 1005.5 |
| 20260506092521 | 21 | 337 | 0.0 | 0.0 | 0.00 | 0.15 | 0.00 | 36 | 1005.2 |
| 20260506091021 | 21 | 135 | 0.0 | 0.0 | 0.00 | 0.15 | 0.00 | 35 | 1005.2 |
| 20260506085521 | 20 | 112 | 0.0 | 0.0 | 0.00 | 0.15 | 0.00 | 35 | 1005.4 |
| 20260506084022 | 20 | 112 | 0.0 | 0.0 | 0.00 | 0.15 | 0.00 | 33 | 1005.0 |
| 20260506082521 | 16 | 247 | 0.0 | 0.0 | 0.00 | 0.15 | 0.00 | 34 | 1005.4 |
| 20260506081021 | 15 | 247 | 0.0 | 0.0 | 0.00 | 0.15 | 0.00 | 33 | 1005.4 |
| 20260506072521 | 15 | 247 | 0.0 | 0.0 | 0.00 | 0.15 | 0.00 | 26 | 1005.2 |
| 20260506071021 | 14 | 247 | 0.0 | 0.0 | 0.00 | 0.15 | 0.00 | 24 | 1005.5 |
| 20260506061021 | 11 | 247 | 0.0 | 0.0 | 0.00 | 0.15 | 0.00 | 1005.4 | |
| 20260506051021 | 8 | 247 | 0.0 | 0.0 | 0.05 | 0.15 | 0.00 | 1005.9 | |
| 20260506044021 | 7 | 247 | 0.0 | 0.0 | 0.05 | 0.15 | 0.00 | 1005.9 | |
| 20260506042521 | 7 | 247 | 0.0 | 0.0 | 0.00 | 0.10 | 0.00 | 1006.0 | |
| 20260506041021 | 7 | 247 | 0.0 | 0.0 | 0.00 | 0.10 | 0.00 | 1006.4 | |
| 20260506035521 | 7 | 247 | 0.0 | 0.0 | 0.00 | 0.10 | 0.00 | 1006.2 | |
| 20260506034021 | 7 | 247 | 0.0 | 0.0 | 0.00 | 0.10 | 0.00 | 1006.2 | |
| 20260506032521 | 7 | 247 | 0.0 | 0.0 | 0.00 | 0.10 | 0.00 | 1006.5 | |
| 20260506031021 | 7 | 247 | 0.0 | 0.0 | 0.00 | 0.10 | 0.00 | 1006.5 | |
| 20260506025521 | 7 | 247 | 0.0 | 0.0 | 0.00 | 0.10 | 0.00 | 1006.7 | |
| 20260506024021 | 7 | 247 | 0.0 | 0.0 | 0.00 | 0.10 | 0.00 | 1006.7 | |
| 20260506022521 | 7 | 247 | 0.0 | 0.0 | 0.00 | 0.10 | 0.00 | 1006.9 | |
| 20260506021021 | 7 | 247 | 0.0 | 0.0 | 0.00 | 0.10 | 0.00 | 1007.0 | |
| 20260506015521 | 7 | 247 | 0.0 | 0.0 | 0.00 | 0.10 | 0.00 | 1007.0 | |
| 20260506014021 | 7 | 247 | 0.0 | 0.0 | 0.00 | 0.10 | 0.00 | 1007.2 | |
| 20260506012521 | 7 | 0 | 0.0 | 0.0 | 0.00 | 0.10 | 0.00 | 1007.0 | |
| 20260506011021 | 7 | 0 | 0.0 | 0.0 | 0.00 | 0.10 | 0.00 | 1007.2 | |
| 20260506005521 | 7 | 22 | 0.0 | 0.0 | 0.00 | 0.10 | 0.00 | 1007.4 | |
| 20260506004021 | 8 | 225 | 0.0 | 0.0 | 0.00 | 0.10 | 0.00 | 1007.2 | |
| 20260506002521 | 8 | 225 | 0.0 | 0.0 | 0.00 | 0.10 | 0.00 | 1007.5 | |
| 20260506001021 | 8 | 270 | 0.0 | 0.0 | 0.00 | 0.10 | 0.00 | 1007.5 | |
| 20260505235521 | 8 | 270 | 0.0 | 0.0 | 0.00 | 0.10 | 0.00 | 1007.7 | |
| 20260505234021 | 8 | 270 | 0.0 | 0.0 | 0.00 | 0.10 | 0.00 | 1007.9 | |
| 20260505232521 | 8 | 270 | 0.0 | 0.0 | 0.00 | 0.10 | 0.00 | 1007.7 | |
| 20260505231021 | 8 | 270 | 0.0 | 0.0 | 0.00 | 0.10 | 0.00 | 1007.9 | |
| 20260505225521 | 9 | 270 | 0.0 | 0.0 | 0.00 | 0.10 | 0.00 | 1008.0 | |
| 20260505224021 | 9 | 270 | 0.0 | 0.0 | 0.00 | 0.10 | 0.00 | 1008.0 | |
| 20260505222521 | 9 | 270 | 0.0 | 0.0 | 0.00 | 0.10 | 0.00 | 1008.2 | |
| 20260505221021 | 9 | 270 | 1.6 | 0.0 | 0.00 | 0.10 | 0.00 | 1008.0 | |
| 20260505215521 | 9 | 270 | 0.0 | 0.0 | 0.00 | 0.10 | 0.00 | 11 | 1007.9 |
| 20260505214021 | 9 | 270 | 0.0 | 0.0 | 0.00 | 0.10 | 0.00 | 12 | 1007.9 |
| 20260505212521 | 10 | 202 | 0.0 | 0.0 | 0.00 | 0.10 | 0.00 | 13 | 1008.0 |
| 20260505211021 | 10 | 202 | 0.0 | 0.0 | 0.00 | 0.10 | 0.00 | 14 | 1008.0 |
| 20260505205521 | 10 | 202 | 0.0 | 0.0 | 0.00 | 0.10 | 0.00 | 15 | 1008.0 |
| 20260505204021 | 10 | 337 | 3.2 | 0.0 | 0.05 | 0.10 | 0.00 | 19 | 1007.9 |
| 20260505202521 | 10 | 0 | 0.0 | 0.0 | 0.05 | 0.10 | 0.00 | 21 | 1008.2 |
| 20260505201021 | 10 | 337 | 0.0 | 0.0 | 0.10 | 0.10 | 0.00 | 24 | 1008.2 |
| 20260505195521 | 11 | 225 | 0.0 | 0.0 | 0.10 | 0.10 | 0.00 | 28 | 1008.0 |
| 20260505194022 | 11 | 202 | 29.0 | 0.0 | 0.05 | 0.05 | 0.00 | 30 | 1008.2 |
| 20260505192521 | 12 | 270 | 16.1 | 0.0 | 0.05 | 0.05 | 0.00 | 29 | 1007.9 |
| 20260505191022 | 12 | 22 | 25.7 | 0.0 | 0.00 | 0.00 | 0.00 | 32 | 1007.4 |
| 20260505185521 | 12 | 270 | 0.0 | 0.0 | 0.00 | 0.00 | 0.00 | 38 | 1007.2 |
| 20260505184021 | 13 | 270 | 0.0 | 0.0 | 0.00 | 0.00 | 0.00 | 41 | 1006.9 |
| 20260505182521 | 13 | 315 | 3.2 | 0.0 | 0.00 | 0.00 | 0.00 | 42 | 1006.5 |
| 20260505181021 | 13 | 270 | 0.0 | 0.0 | 0.00 | 0.00 | 0.00 | 45 | 1006.5 |
| 20260505175521 | 15 | 180 | 0.0 | 0.0 | 0.00 | 0.00 | 0.00 | 45 | 1006.5 |
| 20260505174021 | 15 | 135 | 0.0 | 0.0 | 0.00 | 0.00 | 0.00 | 45 | 1006.5 |
| 20260505172521 | 16 | 135 | 0.0 | 0.0 | 0.00 | 0.00 | 0.00 | 45 | 1006.2 |
| 20260505171021 | 16 | 135 | 0.0 | 0.0 | 0.00 | 0.00 | 0.00 | 45 | 1006.0 |
| 20260505165521 | 16 | 135 | 3.2 | 0.0 | 0.00 | 0.00 | 0.00 | 44 | 1005.7 |
| 20260505164021 | 16 | 135 | 0.0 | 0.0 | 0.00 | 0.00 | 0.00 | 44 | 1005.7 |
| 20260505162521 | 15 | 135 | 3.2 | 0.0 | 0.00 | 0.00 | 0.00 | 47 | 1005.7 |
| 20260505161021 | 16 | 180 | 0.0 | 0.0 | 0.00 | 0.00 | 0.00 | 45 | 1006.2 |
| 20260505152521 | 19 | 337 | 0.0 | 0.0 | 0.00 | 0.00 | 0.00 | 41 | 1006.2 |
| 20260505151021 | 20 | 90 | 0.0 | 0.0 | 0.00 | 0.00 | 0.00 | 40 | 1006.2 |
| 20260505124021 | 19 | 0 | 3.2 | 0.0 | 0.00 | 0.00 | 0.00 | 42 | 1006.7 |
| 20260505122521 | 19 | 45 | 0.0 | 0.0 | 0.00 | 0.00 | 0.00 | 42 | 1006.7 |
| 20260505121021 | 16 | 45 | 0.0 | 0.0 | 0.00 | 0.00 | 0.00 | 45 | 1007.0 |
| 20260505115521 | 16 | 45 | 3.2 | 0.0 | 0.00 | 0.00 | 0.00 | 46 | 1007.2 |
| 20260505114021 | 18 | 337 | 0.0 | 0.0 | 0.00 | 0.00 | 0.00 | 45 | 1007.2 |
| 20260505112521 | 20 | 0 | 3.2 | 0.0 | 0.00 | 0.00 | 0.00 | 42 | 1007.0 |
| 20260505111022 | 21 | 270 | 0.0 | 0.0 | 0.00 | 0.00 | 0.00 | 39 | 1006.7 |